Wind_Speed
5 4 4 5 6 11 17 17 2 7 10 10 5 13 10 9 6 2 4 7 10 13 15 16 15 12 10 13 13 11 11 11 10 10 10 10 11 12 12 12 12 12 13 13 13 13 14 14 14
6 6 5 6 11 19 19 7 6 8 11 7 9 12 8 7 7 2 4 6 10 14 15 16 14 13 11 11 12 11 9 9 8 9 9 9 9 10 10 10 10 10 10 11 11 12 13 13 13
5 6 6 7 13 18 10 12 8 15 6 4 5 5 6 7 5 2 4 9 11 17 16 16 15 14 12 11 11 10 8 7 7 7 7 7 7 8 8 7 8 8 9 9 9 10 10 11 11
6 2 7 12 15 13 10 3 2 1 2 3 3 5 5 8 4 2 9 11 7 16 16 15 14 13 12 10 10 9 8 7 6 6 6 5 6 6 6 6 7 7 7 8 8 8 9 9 10
7 5 14 19 19 14 4 5 3 3 3 8 6 3 4 6 3 5 8 8 10 15 15 14 14 12 11 10 8 7 7 6 5 5 4 4 4 4 4 4 5 6 8 8 9 9 9 9 10
6 5 13 18 17 12 6 5 6 6 7 1 5 1 6 5 5 4 9 9 9 9 14 15 15 14 12 11 9 7 7 5 4 3 2 2 2 3 3 4 6 6 7 8 8 8 9 9 9
12 11 18 17 21 19 11 5 7 7 8 10 2 4 4 4 6 3 4 10 11 7 12 15 15 14 13 11 10 8 7 6 4 3 1 1 1 3 4 5 6 7 8 9 10 10 9 9 10
11 13 18 18 19 19 3 5 7 9 7 9 3 7 8 5 3 1 6 14 15 13 9 14 16 14 13 11 9 9 8 7 6 4 2 0 2 3 5 6 8 9 9 10 11 11 10 11 11
11 18 21 19 18 16 10 7 7 10 11 6 6 5 3 6 4 6 12 13 12 10 8 13 16 16 15 11 10 10 8 8 6 5 3 3 3 4 5 8 10 10 11 12 12 12 12 12 12
16 18 18 18 19 14 8 3 9 6 10 12 9 6 3 7 3 14 13 14 14 11 10 10 14 15 13 12 14 10 8 8 7 7 6 4 3 3 6 10 13 14 13 13 13 13 13 13 13
17 21 19 21 14 16 11 4 9 12 12 13 19 22 17 11 5 13 10 11 13 13 13 4 8 10 7 8 11 9 9 9 10 10 8 6 3 3 9 12 14 15 17 16 13 13 13 13 15
20 20 20 21 18 16 18 13 15 13 15 12 14 22 15 11 10 15 9 21 15 12 15 6 9 7 5 9 10 9 10 13 12 12 10 9 8 9 11 15 16 18 19 20 15 11 12 12 14
18 19 20 18 22 18 16 18 17 17 14 13 8 20 22 11 12 15 11 22 12 10 13 9 10 12 12 12 13 16 17 15 15 13 10 10 10 11 12 16 21 21 27 29 29 19 17 14 13
15 14 20 19 21 20 21 20 19 18 16 16 16 5 6 6 9 12 13 15 15 16 17 15 9 10 14 14 16 16 18 14 15 12 10 12 11 13 14 17 18 19 21 22 27 27 20 14 16
17 21 20 20 21 20 19 24 24 19 18 20 13 14 11 14 10 15 16 16 12 17 20 13 11 9 11 12 16 15 16 16 18 18 17 10 14 14 15 18 19 20 23 26 26 25 24 21 19
15 19 23 20 22 21 20 28 20 19 20 20 19 13 12 11 12 15 21 28 23 23 23 15 14 12 12 12 14 15 16 18 20 22 20 16 18 18 17 20 24 21 27 30 30 26 22 17 15
18 23 22 22 19 25 20 26 20 18 23 21 19 18 14 14 13 20 26 25 27 24 21 19 18 19 14 15 15 15 16 17 17 20 23 20 19 18 20 19 23 26 28 30 31 28 24 18 16
18 23 22 21 17 17 22 24 21 21 21 26 23 18 17 15 24 26 32 31 17 24 25 22 22 21 19 16 15 16 14 15 16 18 22 26 20 18 21 23 23 30 30 29 28 27 24 20 16
22 25 25 24 14 18 19 20 24 21 20 20 19 19 20 19 21 27 30 34 32 27 24 28 27 24 23 19 19 17 15 14 17 18 21 26 21 22 24 22 25 30 28 25 27 27 25 19 19
23 23 24 24 24 24 22 23 22 23 21 22 21 19 20 22 22 30 30 33 33 31 31 30 27 26 25 23 22 22 22 21 18 19 20 20 17 10 10 14 22 24 25 25 25 25 23 20 17
23 24 24 26 24 26 25 31 26 26 22 20 20 19 21 23 23 35 36 32 32 34 29 27 26 27 27 26 26 27 27 27 27 25 23 18 18 19 18 16 14 18 16 20 23 23 20 18 17
25 23 25 25 26 27 24 26 28 29 25 23 24 21 19 22 25 28 23 21 23 26 25 26 28 28 30 31 30 30 31 31 28 27 28 30 28 28 27 26 22 20 17 16 21 22 18 20 18
29 22 24 26 27 26 31 28 27 25 35 28 24 22 21 20 17 20 19 19 22 24 24 26 26 28 28 31 32 33 34 34 33 32 33 31 38 36 36 36 32 25 22 20 17 20 18 19 19
24 25 25 26 30 27 32 31 35 36 36 34 28 26 24 21 18 15 17 18 20 22 21 21 22 24 26 28 31 34 37 38 39 39 40 39 43 47 44 43 39 32 27 24 21 18 18 18 18
25 26 22 22 21 18 31 33 37 26 31 42 32 33 23 21 19 15 10 18 21 21 20 20 20 21 23 25 27 27 30 33 35 35 38 39 43 46 52 55 44 39 29 27 25 19 18 18 18
25 21 12 9 16 17 31 31 10 10 6 45 41 36 25 19 17 17 16 15 21 21 20 20 22 23 22 22 24 26 28 31 35 37 38 40 43 54 52 25 30 41 26 26 24 21 19 17 17
14 22 29 15 30 27 35 29 9 18 16 17 25 30 27 23 18 7 18 17 20 21 23 22 22 21 21 22 23 24 25 26 27 28 33 35 38 51 56 51 65 53 35 36 27 24 22 19 18
16 14 14 12 3 6 18 16 10 19 24 34 32 17 19 17 11 9 9 16 18 17 23 26 25 24 27 27 26 26 27 29 29 27 31 34 34 36 48 56 53 65 48 36 29 29 26 23 19
21 14 12 12 10 4 7 4 13 13 13 7 21 19 22 14 11 5 6 13 16 17 21 26 28 29 33 35 34 36 37 36 35 34 33 34 35 37 31 41 50 49 46 35 27 29 29 27 23
12 13 11 8 7 5 1 6 14 15 13 13 16 26 11 12 9 10 5 6 16 18 21 25 29 31 36 40 42 45 47 46 46 46 43 42 41 39 38 34 37 43 41 45 55 38 35 32 29
Wind_Direction
242 241 266 281 270 252 260 278 50 122 100 89 104 64 61 61 35 130 156 191 172 189 185 175 167 160 149 134 127 121 115 108 98 87 80 73 65 61 55 49 47 45 44 43 44 47 49 50 50
252 247 268 286 263 281 338 308 149 111 56 77 54 65 87 54 20 88 176 193 188 183 182 174 169 159 151 141 128 121 116 107 97 87 76 67 61 54 50 41 37 40 38 35 33 36 36 37 37
249 248 246 253 258 259 280 289 45 85 139 81 332 15 61 31 75 331 238 218 182 179 180 175 168 162 159 151 137 130 124 110 96 83 72 65 57 50 46 37 29 25 25 27 25 26 28 27 28
213 256 256 256 265 274 295 212 8 325 201 139 103 292 7 20 68 266 201 216 159 182 177 178 173 170 164 160 146 139 131 118 100 82 71 59 50 41 32 25 15 11 7 5 11 13 13 14 14
212 174 253 267 268 264 223 250 294 285 322 149 107 69 359 28 44 95 137 153 175 185 182 184 180 179 174 169 160 154 137 129 111 99 80 61 42 32 11 3 358 356 351 351 351 356 360 360 0
228 252 260 264 268 265 233 263 280 271 281 206 333 242 263 340 45 92 129 133 166 172 192 193 189 187 188 185 175 174 156 144 132 118 108 79 36 14 351 345 344 340 336 334 335 341 344 344 345
219 245 259 272 281 290 244 222 283 270 281 281 143 152 189 335 355 70 137 148 196 177 189 202 200 196 197 199 190 187 185 161 159 157 142 78 15 351 344 342 336 330 328 326 327 328 331 331 332
235 254 267 270 269 283 212 221 274 268 260 280 235 126 156 267 301 286 170 158 209 243 200 205 204 201 206 206 206 199 201 186 183 185 190 137 29 15 6 351 339 329 321 317 314 314 319 322 324
237 258 255 258 258 274 260 248 270 251 258 272 294 280 210 102 282 155 161 172 203 252 200 208 203 203 204 205 222 215 208 202 197 189 180 152 105 41 17 19 5 342 317 310 308 309 313 315 318
232 243 249 249 280 316 261 238 240 262 267 247 208 267 176 207 217 165 169 183 204 210 271 210 208 205 212 205 224 215 212 215 205 188 171 156 110 31 29 10 3 355 350 312 299 301 306 308 307
235 244 248 257 299 277 305 252 265 265 268 248 241 230 198 219 190 164 192 207 205 203 235 230 191 187 200 214 223 217 211 217 203 191 195 205 256 339 351 341 343 343 346 343 305 295 295 295 296
243 249 260 266 274 283 268 266 272 267 250 296 242 187 159 169 186 171 194 219 193 223 218 231 176 193 238 248 223 216 234 223 211 207 219 245 261 295 315 331 323 329 338 336 337 297 281 274 297
252 252 255 268 265 262 265 259 257 259 255 263 286 274 174 162 173 166 203 265 161 233 229 235 216 219 226 236 224 218 228 219 209 218 226 246 263 282 291 306 317 325 332 332 337 329 304 299 296
252 263 265 255 265 258 261 261 254 255 253 246 252 241 238 209 186 192 200 217 209 227 221 222 237 213 229 230 235 224 225 224 212 220 219 243 260 279 297 306 311 305 311 319 319 323 306 283 283
259 259 268 256 256 257 255 257 251 251 244 237 248 261 232 239 221 211 211 200 218 220 239 228 234 219 226 237 241 241 236 230 231 238 242 250 255 268 290 296 306 303 304 313 313 315 301 301 295
267 258 265 263 258 254 244 255 251 253 238 240 242 236 224 233 220 222 222 227 196 211 232 226 232 223 231 247 249 249 245 247 248 253 259 263 265 268 285 293 303 302 306 309 307 308 306 300 262
257 258 261 269 256 249 234 254 252 249 236 234 228 227 229 228 240 215 225 222 244 220 227 227 230 236 232 241 246 253 256 256 265 267 267 274 265 272 279 286 293 296 302 301 300 304 302 295 272
260 256 258 255 272 225 239 254 251 254 244 227 226 221 225 229 226 225 228 242 208 233 238 235 235 239 239 235 251 255 254 260 268 274 276 275 271 278 282 281 288 292 295 294 291 293 291 288 269
265 272 282 275 278 251 251 251 252 256 255 205 211 230 229 244 231 226 226 232 246 253 253 256 245 242 246 243 243 256 250 263 273 274 275 276 275 279 274 272 280 287 288 286 288 290 292 285 263
266 272 271 270 271 272 262 256 254 246 239 220 228 228 224 233 238 237 229 234 239 246 246 253 250 245 246 246 247 254 255 258 267 275 281 273 266 265 275 277 274 282 283 279 279 281 284 281 273
266 264 269 270 274 264 260 260 250 252 215 209 207 216 212 224 239 247 249 249 241 243 245 243 245 247 248 249 247 250 259 262 266 272 279 260 255 264 272 276 280 290 303 285 283 281 277 271 268
270 272 262 268 267 268 261 250 250 247 212 211 210 206 191 196 219 246 249 238 241 243 244 245 246 251 249 250 249 250 257 262 265 262 269 265 262 262 261 268 269 276 288 290 283 283 275 263 257
272 268 271 267 271 256 258 268 256 251 214 210 203 204 202 200 202 235 231 228 242 248 246 244 245 247 250 247 246 249 255 258 259 257 258 258 266 261 262 261 262 262 275 283 289 282 274 260 248
266 265 262 269 262 266 252 251 262 255 233 208 202 196 188 183 178 185 219 223 238 247 246 248 250 252 253 253 252 253 254 258 259 261 259 255 261 266 263 260 252 256 260 270 284 285 280 255 241
260 270 259 254 246 247 253 252 254 274 280 199 197 192 190 187 182 165 190 227 240 241 248 248 246 249 252 255 256 257 258 258 257 257 257 252 255 264 268 258 253 249 251 262 271 282 274 248 236
271 285 316 296 288 276 260 260 248 289 333 201 201 191 187 183 185 182 187 216 238 243 252 257 256 257 260 261 261 261 261 259 259 262 263 264 257 259 265 282 239 209 249 256 259 269 269 252 234
287 269 276 305 275 293 281 277 254 247 213 174 199 177 175 182 186 187 216 210 228 240 251 255 248 257 261 263 262 262 263 261 257 258 263 269 267 262 250 264 270 276 229 233 247 258 260 254 238
266 283 309 286 0 247 254 299 337 307 243 212 197 187 183 181 181 175 258 227 227 234 252 257 255 265 269 269 272 271 270 268 266 266 267 271 275 276 255 252 263 276 249 220 228 244 249 251 242
281 275 290 276 273 303 333 31 342 326 254 192 185 198 186 178 171 227 234 275 247 244 255 263 268 276 280 280 281 281 279 275 273 273 272 271 273 280 291 262 258 268 267 212 224 233 248 249 246
278 264 274 258 270 239 170 287 325 336 296 218 186 165 162 170 173 189 261 279 280 279 275 279 278 280 285 286 286 287 285 283 280 279 274 268 272 276 280 282 271 261 257 251 259 234 242 250 245
Height
3190 3190 3190 3189 3192 3187 3180 3178 3177 3177 3179 3180 3180 3182 3185 3184 3183 3189 3188 3188 3190 3192 3195 3197 3199 3202 3203 3203 3204 3206 3207 3208 3209 3209 3210 3210 3210 3210 3210 3210 3210 3210 3209 3209 3209 3208 3206 3206 3205
3190 3191 3190 3190 3192 3186 3184 3175 3177 3177 3187 3185 3182 3185 3184 3184 3184 3185 3187 3185 3188 3192 3195 3198 3200 3202 3203 3204 3204 3206 3208 3209 3210 3211 3211 3212 3211 3212 3211 3212 3212 3211 3210 3210 3210 3209 3209 3208 3207
3190 3190 3191 3191 3190 3186 3186 3178 3181 3175 3189 3187 3184 3184 3185 3186 3186 3184 3185 3185 3188 3192 3195 3198 3200 3202 3204 3204 3205 3206 3209 3210 3211 3212 3213 3213 3213 3213 3213 3213 3213 3212 3212 3211 3211 3210 3210 3209 3208
3189 3191 3192 3189 3188 3186 3183 3183 3182 3185 3184 3184 3186 3184 3186 3186 3186 3185 3185 3185 3189 3192 3196 3198 3200 3202 3203 3205 3206 3207 3209 3210 3211 3212 3213 3214 3214 3214 3214 3214 3214 3213 3213 3212 3212 3212 3211 3210 3209
3189 3191 3192 3188 3186 3186 3186 3184 3185 3184 3182 3174 3183 3185 3187 3187 3188 3186 3186 3186 3188 3192 3195 3198 3200 3202 3204 3206 3207 3208 3209 3211 3212 3213 3214 3214 3215 3215 3215 3215 3215 3214 3213 3213 3213 3212 3211 3211 3210
3189 3192 3192 3187 3181 3182 3182 3183 3185 3185 3185 3182 3183 3187 3187 3189 3189 3189 3188 3189 3189 3192 3195 3198 3200 3202 3204 3206 3207 3209 3209 3211 3212 3213 3214 3214 3215 3215 3216 3216 3215 3214 3214 3214 3213 3213 3212 3212 3211
3187 3192 3190 3187 3182 3180 3179 3180 3185 3186 3186 3187 3186 3184 3186 3188 3190 3190 3191 3191 3191 3192 3195 3197 3199 3202 3204 3206 3207 3208 3210 3210 3211 3212 3214 3214 3215 3216 3216 3216 3216 3215 3214 3214 3213 3213 3212 3212 3212
3188 3192 3189 3187 3184 3181 3178 3179 3185 3186 3186 3186 3186 3180 3189 3192 3192 3191 3191 3194 3191 3190 3194 3195 3198 3200 3203 3205 3206 3208 3210 3209 3210 3212 3214 3214 3215 3216 3217 3216 3216 3215 3214 3213 3213 3212 3212 3212 3212
3189 3191 3188 3187 3185 3183 3180 3179 3184 3185 3184 3185 3185 3179 3185 3187 3192 3190 3192 3195 3193 3189 3191 3193 3196 3198 3201 3203 3207 3208 3209 3209 3211 3212 3213 3214 3216 3216 3217 3216 3216 3215 3214 3213 3212 3211 3212 3212 3212
3187 3187 3186 3184 3184 3180 3180 3179 3183 3184 3184 3185 3187 3175 3179 3186 3189 3191 3192 3195 3194 3191 3189 3193 3195 3198 3201 3203 3206 3207 3208 3210 3211 3212 3213 3214 3215 3215 3216 3216 3215 3215 3213 3212 3211 3211 3210 3211 3211
3185 3183 3183 3182 3181 3180 3178 3178 3183 3183 3184 3184 3182 3176 3177 3180 3183 3188 3191 3190 3191 3192 3190 3191 3194 3197 3200 3202 3205 3205 3207 3209 3210 3211 3212 3213 3213 3214 3214 3214 3215 3214 3213 3212 3210 3210 3209 3210 3209
3183 3182 3182 3180 3181 3180 3179 3180 3181 3182 3181 3181 3177 3175 3178 3182 3181 3187 3190 3182 3169 3186 3191 3191 3193 3196 3197 3200 3202 3204 3206 3208 3208 3210 3211 3212 3212 3212 3211 3212 3213 3212 3212 3210 3209 3208 3207 3207 3207
3180 3180 3180 3179 3178 3178 3178 3177 3179 3179 3179 3180 3176 3162 3162 3181 3183 3186 3190 3178 3158 3179 3189 3191 3193 3195 3196 3197 3200 3201 3204 3206 3206 3208 3210 3210 3210 3211 3211 3210 3206 3206 3204 3205 3203 3204 3203 3204 3206
3178 3177 3176 3176 3175 3175 3175 3174 3176 3177 3176 3177 3175 3179 3179 3180 3181 3185 3188 3182 3181 3184 3189 3190 3192 3195 3196 3197 3198 3200 3202 3202 3204 3205 3207 3208 3209 3209 3210 3209 3210 3209 3209 3208 3204 3201 3201 3203 3204
3175 3174 3173 3172 3171 3171 3172 3170 3170 3173 3175 3173 3172 3173 3177 3176 3178 3182 3185 3185 3184 3183 3186 3189 3190 3194 3195 3196 3197 3199 3200 3201 3202 3203 3203 3206 3206 3207 3207 3207 3208 3208 3206 3206 3204 3202 3198 3198 3198
3172 3171 3168 3167 3167 3167 3170 3164 3167 3169 3171 3171 3172 3174 3176 3177 3178 3179 3179 3177 3176 3177 3180 3185 3187 3191 3193 3195 3196 3197 3199 3200 3201 3201 3202 3204 3205 3204 3204 3203 3203 3203 3202 3201 3199 3198 3196 3195 3195
3168 3166 3164 3162 3162 3161 3163 3162 3164 3166 3166 3168 3169 3173 3175 3177 3177 3174 3174 3171 3180 3180 3177 3181 3184 3186 3191 3192 3194 3195 3196 3197 3198 3198 3199 3200 3202 3202 3200 3201 3199 3198 3199 3197 3195 3193 3193 3193 3194
3162 3159 3158 3156 3158 3156 3158 3158 3160 3161 3161 3162 3166 3168 3172 3176 3168 3169 3169 3168 3170 3176 3174 3177 3181 3184 3186 3189 3190 3191 3192 3193 3194 3195 3194 3193 3197 3197 3198 3196 3196 3193 3193 3192 3190 3190 3189 3189 3190
3161 3158 3156 3155 3154 3154 3153 3154 3155 3157 3156 3157 3159 3164 3169 3170 3160 3163 3165 3165 3167 3168 3170 3173 3178 3181 3182 3184 3186 3187 3188 3190 3190 3191 3190 3188 3191 3192 3192 3191 3190 3188 3187 3187 3186 3185 3184 3184 3185
3157 3156 3155 3155 3153 3152 3150 3149 3152 3152 3152 3153 3157 3159 3162 3160 3157 3154 3161 3163 3164 3166 3168 3170 3173 3175 3178 3179 3181 3183 3184 3185 3186 3187 3186 3185 3186 3186 3186 3185 3184 3182 3182 3182 3181 3180 3179 3178 3180
3153 3153 3153 3152 3150 3148 3147 3144 3147 3147 3144 3148 3149 3152 3154 3156 3152 3153 3157 3158 3159 3162 3164 3166 3168 3171 3172 3174 3176 3178 3179 3181 3182 3182 3182 3182 3181 3182 3181 3181 3179 3177 3176 3175 3173 3174 3174 3174 3175
3149 3150 3148 3148 3147 3142 3142 3135 3139 3141 3139 3141 3143 3146 3150 3148 3146 3147 3150 3151 3153 3156 3159 3160 3163 3165 3167 3168 3170 3172 3174 3175 3177 3177 3176 3175 3177 3176 3176 3174 3174 3171 3171 3170 3168 3167 3169 3168 3169
3144 3146 3144 3142 3139 3139 3135 3133 3129 3133 3131 3134 3138 3141 3143 3143 3142 3141 3144 3146 3148 3150 3154 3156 3158 3160 3161 3163 3165 3166 3167 3168 3169 3170 3170 3169 3166 3169 3167 3166 3166 3167 3165 3163 3161 3159 3162 3163 3163
3141 3141 3139 3139 3137 3131 3128 3131 3125 3125 3124 3125 3132 3138 3139 3141 3141 3138 3138 3142 3144 3145 3148 3150 3152 3154 3155 3156 3158 3159 3160 3160 3161 3162 3162 3163 3158 3156 3157 3157 3160 3162 3161 3161 3160 3157 3155 3156 3159
3138 3137 3132 3131 3126 3118 3122 3122 3119 3118 3114 3109 3127 3130 3137 3138 3136 3137 3136 3136 3138 3140 3142 3144 3146 3147 3149 3150 3151 3151 3152 3153 3153 3154 3154 3154 3153 3147 3138 3127 3141 3156 3158 3156 3156 3153 3152 3150 3151
3134 3135 3136 3139 3125 3114 3115 3111 3113 3115 3111 3104 3114 3122 3132 3136 3136 3132 3132 3131 3131 3134 3135 3137 3140 3141 3142 3143 3144 3144 3144 3145 3145 3146 3147 3147 3145 3138 3124 3076 3073 3118 3153 3153 3152 3148 3149 3148 3146
3132 3131 3132 3129 3132 3123 3115 3113 3116 3118 3118 3115 3119 3115 3123 3127 3130 3128 3125 3126 3126 3126 3129 3131 3133 3134 3135 3136 3136 3137 3138 3138 3138 3137 3138 3138 3136 3129 3126 3128 3118 3112 3129 3140 3140 3139 3146 3143 3140
3130 3130 3128 3126 3128 3125 3114 3114 3117 3117 3116 3109 3113 3119 3118 3120 3124 3124 3121 3123 3120 3121 3120 3124 3126 3127 3126 3128 3130 3130 3130 3130 3129 3129 3130 3129 3128 3122 3123 3121 3115 3113 3125 3125 3120 3131 3137 3139 3139
3127 3123 3127 3127 3128 3123 3120 3118 3119 3112 3116 3100 3111 3116 3117 3116 3118 3120 3121 3118 3117 3116 3115 3117 3120 3120 3118 3120 3122 3121 3120 3121 3121 3121 3121 3121 3120 3116 3113 3109 3111 3109 3097 3094 3111 3122 3127 3132 3134
3121 3122 3124 3124 3121 3122 3120 3117 3116 3115 3115 3110 3108 3108 3112 3113 3116 3115 3119 3118 3113 3111 3110 3111 3112 3113 3111 3110 3112 3112 3110 3110 3109 3111 3111 3111 3111 3110 3106 3102 3102 3103 3106 3103 3114 3110 3120 3125 3126